This is the latest recevied weather packets stored in our database for station/object AB0TJ. If no packets are shown the sender has not sent any weather packets the latest 10 day(s).
| Time | Temp. | Humidity | Pressure | Rain* | Wind** | Luminosity | Snow |
|---|---|---|---|---|---|---|---|
| 1778071174 | 7.22° C | 76% | 1013.1 hPa | 0.51 mm | - | 2 W/m² | - |
| 1778070689 | 7.78° C | 74% | 1012.9 hPa | 0.25 mm | - | 1 W/m² | - |
| 1778070134 | 8.33° C | 74% | 1011.8 hPa | 0.51 mm | - | 1 W/m² | - |
| 1778069569 | 8.89° C | 73% | 1011.3 hPa | 0.25 mm | - | 0 W/m² | - |
| 1778068973 | 8.89° C | 71% | 1010.8 hPa | 0.25 mm | - | 0 W/m² | - |
| 1778068429 | 8.89° C | 68% | 1010.5 hPa | 0.25 mm | - | 0 W/m² | - |
| 1778067889 | 8.89° C | 64% | 1010.1 hPa | 0.25 mm | - | 0 W/m² | - |
| 1778067344 | 9.44° C | 63% | 1009.8 hPa | 0.25 mm | - | 0 W/m² | - |
| 1778066784 | 9.44° C | 59% | 1009.8 hPa | 0.25 mm | - | 0 W/m² | - |
| 1778066289 | 10° C | 55% | 1009.8 hPa | 0 mm | - | 0 W/m² | - |
| 1778065804 | 10° C | 55% | 1009.4 hPa | 0 mm | - | 0 W/m² | - |
| 1778065299 | 10° C | 54% | 1009.8 hPa | 0 mm | - | 0 W/m² | - |
| 1778064779 | 9.44° C | 54% | 1009.2 hPa | 0 mm | - | 0 W/m² | - |
| 1778064184 | 9.44° C | 54% | 1009.3 hPa | 0 mm | - | 0 W/m² | - |
| 1778063664 | 9.44° C | 55% | 1009.3 hPa | 0 mm | - | 0 W/m² | - |
| 1778063104 | 9.44° C | 56% | 1009.3 hPa | 0 mm | - | 0 W/m² | - |
| 1778062599 | 9.44° C | 55% | 1010.2 hPa | 0 mm | - | 0 W/m² | - |
| 1778062019 | 10° C | 54% | 1009.3 hPa | 0 mm | - | 0 W/m² | - |
| 1778061494 | 10° C | 54% | 1009.3 hPa | 0 mm | - | 0 W/m² | - |
| 1778061004 | 10° C | 53% | 1009.2 hPa | 0 mm | - | 0 W/m² | - |
| 1778060504 | 10° C | 53% | 1008.9 hPa | 0 mm | - | 0 W/m² | - |
| 1778059935 | 10° C | 53% | 1009.5 hPa | 0 mm | - | 0 W/m² | - |
| 1778059352 | 10° C | 52% | 1008.9 hPa | 0 mm | - | 0 W/m² | - |
| 1778058859 | 10° C | 51% | 1008.7 hPa | 0 mm | - | 0 W/m² | - |
| 1778058274 | 10° C | 53% | 1008.6 hPa | 0 mm | - | 0 W/m² | - |
* Rain latest hour (hover to see other rain measurements)
** Current wind speed in m/s (hover to see current wind gust speed)